Location: Unspecified
(0.0000°N, 0.0000°E)
Time: 02:53:16
(UTC+00:00)

Transit 2A Rocket - All Passes

Search period start: 05 May 2016 00:00
Search period end: 15 May 2016 00:00
Orbit: 586 x 919 km, 66.7° (Epoch: 04 May)

Date Brightness Start Highest point End Pass type
(mag) Time Alt. Az. Time Alt. Az. Time Alt. Az.
05 May - 00:30:56 10° WSW 00:33:27 15° WNW 00:36:03 10° NNW night (unlit)
05 May - 11:15:54 10° NNW 11:21:58 79° ENE 11:27:43 10° SSE daylight
05 May - 23:47:13 10° SW 23:51:09 34° WNW 23:55:20 10° N night (unlit)
06 May - 10:34:06 10° N 10:39:42 40° ENE 10:45:04 10° SE daylight
06 May - 12:18:25 10° WNW 12:22:02 17° WSW 12:25:33 10° SSW daylight
06 May - 23:04:34 10° SSW 23:08:54 83° WNW 23:13:32 10° NNE night (unlit)
07 May - 09:53:03 10° NNE 09:57:24 20° ENE 10:01:36 10° ESE daylight
07 May - 11:34:31 10° NW 11:39:50 33° WSW 11:44:53 10° S daylight
07 May - 22:22:39 10° S 22:26:43 40° ESE 22:31:01 10° NE night (unlit)
08 May - 10:51:39 10° NNW 10:57:38 66° WSW 11:03:16 10° S daylight
08 May - 21:41:39 10° SSE 21:44:33 17° ESE 21:47:32 10° ENE night (unlit)
08 May - 23:23:38 10° WSW 23:26:49 19° WNW 23:30:09 10° NNW night (unlit)
09 May - 10:09:24 10° N 10:15:24 64° ENE 10:21:03 10° SSE daylight
09 May - 22:40:21 10° SW 22:44:31 44° WNW 22:48:58 10° N night (unlit)
10 May - 09:27:48 10° N 09:33:07 32° ENE 09:38:10 10° SE daylight
10 May - 11:11:11 10° WNW 11:15:28 20° WSW 11:19:34 10° SSW daylight
10 May - 21:57:57 10° SSW 22:02:17 75° ESE 22:06:56 10° NNE night (unlit)
11 May - 08:47:09 10° NNE 08:50:47 16° ENE 08:54:18 10° ESE daylight
11 May - 10:27:41 10° NW 10:33:16 40° WSW 10:38:33 10° S daylight
11 May - 21:16:16 10° S 21:20:07 31° ESE 21:24:10 10° NE night (unlit)
11 May - 23:01:14 10° W 23:02:30 11° WNW 23:03:46 10° NW night (unlit)
12 May - 09:45:02 10° NNW 09:51:03 81° WSW 09:56:44 10° SSE daylight
12 May - 20:35:47 10° SE 20:37:56 13° ESE 20:40:08 10° E night (unlit)
12 May - 22:16:31 10° SW 22:20:10 25° WNW 22:24:01 10° NNW night (unlit)
13 May - 09:02:59 10° N 09:08:48 51° ENE 09:14:18 10° SE daylight
13 May - 10:48:53 10° W 10:51:05 12° WSW 10:53:16 10° SW daylight
13 May - 21:33:34 10° SSW 21:37:53 59° WNW 21:42:30 10° N night (unlit)
14 May - 08:21:36 10° NNE 08:26:31 26° ENE 08:31:12 10° SE daylight
14 May - 10:04:07 10° NW 10:08:53 25° WSW 10:13:27 10° SSW daylight
14 May - 20:51:23 10° S 20:55:40 56° ESE 21:00:16 10° NNE night (unlit)
